Terminal Aerodrome Forecast
Issued by NWS Greer, SC

Home | Current Version | Previous Version | Text Only | Print | Product List | Glossary On
Versions: 1 2 3 4 5 6 7 8 9 10 11 12 13 14 15 16 17 18 19 20 21 22 23 24 25 26 27 28 29 30 31 32 33 34 35 36 37 38 39 40 41
000
FTUS42 KGSP 011310 AAA
TAFAVL
TAF AMD
KAVL 011310Z 0113/0212 13005KT 3SM BR FEW003 OVC035
     FM011400 15003KT 6SM -RA BR OVC015
     FM011600 14003KT P6SM -RA OVC008
     FM011800 16003KT P6SM OVC014
     FM021000 32005KT P6SM BKN008=

USA.gov is the U.S. government's official web portal to all federal, state and local government web resources and services.